Probability
0 0 0 0 0 0 0 0 0 0 0 0 0 2 3 3 2 2 6 10 13 15 20 23 25 28 32 37 41 43 45 47 45 43 40 35 28 21 17 13 10 8 7 6
0 0 0 0 0 0 0 0 0 0 0 0 1 2 3 2 1 2 7 11 16 20 22 23 24 27 30 33 33 35 38 40 40 37 35 31 25 20 16 14 13 10 8 9
0 0 0 0 0 0 0 0 0 0 0 0 1 2 2 1 1 3 7 13 19 23 24 24 24 24 24 25 25 26 30 33 32 30 28 26 23 19 16 15 14 11 8 8
0 0 0 0 0 0 0 0 0 0 0 0 1 1 0 0 0 3 9 15 19 20 21 23 25 23 20 20 21 23 25 28 27 26 25 25 23 20 17 15 13 10 7 5
0 0 0 0 0 0 0 0 0 0 0 0 0 0 0 1 0 2 8 14 17 17 18 22 26 25 22 21 21 22 22 23 24 24 24 25 23 21 19 18 15 10 7 5
0 0 0 0 0 0 0 0 0 0 0 0 0 0 0 0 0 2 6 10 14 16 16 20 26 27 25 24 23 22 21 21 22 23 23 22 21 20 20 18 14 10 7 6
0 0 0 0 0 0 0 0 0 0 0 0 0 0 0 1 1 2 5 8 11 14 16 19 23 24 22 22 23 22 21 20 20 21 19 16 15 15 16 14 11 8 7 6
0 0 0 0 0 0 0 0 0 0 0 0 0 0 1 2 3 4 5 7 10 13 14 17 20 20 18 18 19 19 19 18 16 15 14 12 10 10 11 10 8 6 6 6
0 0 0 0 0 0 0 0 0 0 0 0 0 0 1 3 5 5 6 7 8 9 11 14 16 16 16 16 15 15 14 12 10 9 10 10 9 8 9 8 5 4 4 4
0 0 0 0 0 0 0 0 0 0 0 0 0 0 1 3 4 5 7 7 6 6 10 12 13 13 14 14 13 12 10 7 6 6 8 8 7 7 8 7 4 3 3 3
1 0 0 0 0 0 0 0 0 0 0 0 0 0 1 2 2 4 6 6 5 7 10 12 10 9 11 11 11 10 8 5 4 4 5 4 4 5 6 5 4 3 3 3
2 1 0 0 0 0 0 0 0 0 0 0 0 0 1 1 0 1 3 4 6 8 9 9 8 6 6 7 8 8 6 4 3 3 3 2 2 3 4 4 3 3 3 3
2 1 0 0 0 0 0 0 0 0 0 0 0 0 0 0 0 0 1 3 5 6 6 6 5 4 3 3 5 5 4 3 3 3 3 3 3 3 3 3 3 3 2 2
1 0 0 0 0 0 0 0 0 0 0 0 0 0 0 0 1 1 1 1 3 4 4 3 3 3 1 1 2 2 2 2 1 1 2 3 3 3 3 3 3 2 1 1
0 0 0 0 0 0 0 0 0 0 0 0 0 0 0 1 2 2 1 1 3 4 3 3 3 2 2 2 2 2 2 2 1 0 1 2 4 4 3 3 3 3 1 1
0 0 0 0 0 1 1 1 0 0 0 0 0 0 1 3 4 3 1 2 3 4 4 3 2 2 2 3 3 1 1 1 0 0 0 1 4 4 4 3 3 3 3 2
1 1 0 0 0 1 1 1 0 0 0 0 0 0 1 3 4 3 2 2 4 4 4 3 2 3 3 3 2 1 0 0 0 0 0 0 2 3 3 3 3 3 3 3
2 2 1 0 0 1 1 0 0 0 0 0 0 0 1 2 3 3 2 2 3 4 4 3 3 4 3 2 1 0 0 0 0 0 0 0 0 1 1 2 3 3 3 3
2 2 2 0 0 0 0 0 0 0 0 0 0 0 0 1 2 2 1 1 1 2 2 2 3 3 2 0 0 0 0 0 0 0 0 0 0 0 0 1 2 3 3 3
2 2 1 0 0 0 0 0 0 0 0 0 1 2 2 2 3 3 2 1 1 1 1 1 1 1 0 0 0 0 0 0 0 0 0 0 0 0 0 0 1 1 2 2
1 1 1 0 0 0 0 0 0 0 0 0 1 2 3 4 5 5 4 3 2 2 2 1 0 0 0 0 0 0 0 0 0 0 0 0 0 0 0 0 0 0 1 1
0 0 0 0 0 0 0 0 0 0 0 0 0 1 2 5 5 4 4 3 3 3 2 1 1 1 1 0 0 0 0 0 0 0 0 0 0 0 0 0 0 0 1 1
0 0 0 1 0 0 0 0 0 1 0 0 0 0 1 2 3 2 2 2 2 2 1 0 1 2 1 0 0 0 0 0 0 0 0 0 0 0 0 0 0 0 0 0
0 0 0 0 0 0 0 0 0 0 0 0 0 0 0 1 1 0 1 1 1 1 0 0 1 2 2 1 0 0 0 0 0 0 0 0 0 0 0 0 0 0 0 0
0 0 0 0 0 0 0 0 0 0 0 0 0 0 0 0 0 0 0 0 0 0 0 0 1 2 2 1 0 0 0 0 0 0 0 0 0 0 0 0 0 0 0 0
0 0 0 0 0 0 0 0 0 0 0 0 0 0 0 0 0 0 0 0 0 0 0 0 0 1 2 2 1 0 0 0 0 0 0 0 0 0 0 0 0 0 0 0
Wind_Speed
4 5 2 1 2 2 2 3 2 1 1 3 3 3 2 2 3 4 4 3 3 3 3 4 4 4 3 3 4 4 4 5 4 3 3 3 2 2 1 1 1 2 3 3
6 3 1 1 2 4 4 4 2 1 1 3 3 5 3 3 3 3 3 3 3 3 3 4 4 4 4 4 4 4 4 4 4 3 2 1 1 1 1 0 0 1 2 3
1 3 1 2 3 3 3 4 3 3 2 5 6 6 5 4 4 4 4 3 3 3 3 4 4 4 4 4 3 3 3 3 3 4 3 3 2 2 1 0 0 1 2 2
0 1 2 3 2 4 4 2 3 4 6 4 5 6 4 4 5 4 4 3 2 2 4 4 4 4 4 4 4 3 3 3 3 3 3 3 2 0 1 1 1 1 1 2
1 1 3 3 3 5 4 3 5 6 7 6 6 7 2 5 4 3 3 3 3 2 3 4 4 5 4 4 4 4 3 3 3 2 2 2 1 0 0 1 1 1 1 2
1 1 3 3 3 2 1 4 6 8 8 7 3 7 3 2 2 2 1 1 2 3 3 4 5 6 5 5 4 4 4 3 3 2 2 1 1 0 1 1 1 1 1 1
2 3 1 1 3 2 3 5 5 6 6 3 0 6 2 3 2 2 1 1 2 3 3 4 5 6 6 6 5 5 4 3 3 3 2 1 1 1 1 1 1 2 2 2
3 1 2 2 4 4 4 7 6 7 6 5 3 5 2 3 2 1 1 2 3 2 2 3 4 5 5 5 5 5 4 3 3 3 2 2 1 0 1 2 2 1 2 2
6 3 2 2 4 6 5 5 6 9 9 8 4 3 1 2 2 2 2 2 2 2 2 3 4 5 5 5 5 4 4 3 2 2 3 2 2 1 1 0 1 1 2 2
6 7 3 1 5 3 5 6 5 7 7 8 6 5 3 3 3 2 1 0 1 2 2 3 3 4 5 5 5 4 4 3 2 2 2 2 2 1 1 0 1 2 2 2
6 6 4 4 5 5 4 4 6 7 7 8 7 4 6 5 4 3 1 0 1 2 2 3 3 4 5 5 5 5 4 3 2 2 2 2 2 1 1 0 1 1 2 3
4 6 6 5 2 3 4 5 6 7 7 8 9 3 6 4 4 3 2 0 1 1 2 3 4 4 4 4 4 4 3 3 2 2 3 2 1 1 0 0 1 1 2 3
5 5 7 4 5 4 3 4 6 7 8 8 9 4 4 5 5 3 2 1 1 2 2 3 4 4 3 3 3 3 3 3 2 1 3 2 1 0 1 1 1 2 2 3
6 6 7 8 8 8 9 9 8 9 9 10 10 10 6 7 6 5 3 1 1 3 3 3 3 3 3 3 2 2 3 2 2 2 2 1 1 1 1 1 1 2 3 3
5 7 7 9 9 9 10 10 9 10 11 11 11 9 7 6 5 4 3 2 2 3 4 4 3 3 3 3 3 1 2 2 2 2 2 2 1 1 1 2 2 2 2 3
3 6 7 9 8 8 9 9 8 7 8 9 9 7 6 6 4 3 3 2 3 3 4 4 4 4 3 3 3 2 2 2 3 3 3 2 2 2 2 1 1 2 2 3
4 5 7 7 6 10 7 3 4 5 6 6 7 6 6 7 6 5 3 3 3 3 3 4 4 4 3 3 3 3 2 3 3 3 3 2 2 2 2 2 1 1 2 2
6 7 6 7 8 7 3 4 4 5 4 4 4 5 7 7 6 4 3 3 4 3 3 4 4 4 3 3 3 3 3 3 3 3 3 2 2 2 2 2 2 2 2 2
6 6 6 6 7 7 3 2 5 7 7 3 5 8 8 7 6 2 2 3 3 3 3 3 4 4 3 4 3 4 3 3 3 3 3 2 2 2 2 2 2 2 2 3
5 6 7 7 8 6 3 6 6 7 6 5 8 9 9 8 7 4 4 4 3 2 1 2 3 4 3 4 4 4 4 3 3 3 3 2 2 2 2 2 2 2 3 3
5 6 7 9 8 6 5 6 6 6 5 9 10 9 8 8 8 6 5 4 2 2 1 1 2 3 3 4 4 4 3 3 2 2 2 2 2 2 2 2 2 2 3 3
6 6 5 6 7 3 7 6 6 8 9 9 9 8 8 8 7 5 4 3 2 2 1 2 2 2 3 4 4 4 3 3 2 2 2 2 2 2 1 1 2 2 3 3
5 6 6 5 5 5 7 8 8 9 9 9 8 8 7 7 6 5 4 3 3 2 2 2 3 3 3 5 5 4 3 3 3 2 2 1 1 1 1 1 1 2 2 3
5 5 7 8 7 8 9 9 9 10 10 10 8 7 7 7 6 4 3 3 3 3 2 3 3 3 4 5 5 4 3 3 3 3 2 2 2 2 1 2 2 2 2 3
9 6 8 11 11 10 8 9 11 11 10 9 8 7 6 5 5 4 3 3 3 3 3 3 4 3 4 5 5 4 4 4 3 3 2 2 2 2 1 2 2 2 2 3
8 9 10 9 9 10 12 12 12 12 11 9 8 7 6 5 4 4 3 3 3 3 3 3 4 4 4 5 5 4 4 4 4 3 3 2 2 1 2 1 1 1 2 2
Wind_Direction
207 218 182 119 305 309 257 255 250 283 111 243 252 256 249 201 199 200 191 182 182 171 144 134 136 134 130 135 144 148 163 163 167 164 176 172 175 174 159 151 34 313 313 320
196 153 61 305 259 248 237 252 257 200 168 260 253 262 246 207 217 224 216 199 196 175 145 133 128 129 137 152 157 155 164 162 172 162 170 178 182 175 120 28 34 323 330 322
243 57 34 246 216 242 245 269 284 279 250 229 242 239 207 206 204 209 215 210 199 185 169 154 144 144 149 155 158 154 153 154 157 161 167 162 167 182 164 201 53 1 344 344
37 79 243 246 252 284 273 300 267 245 250 249 248 271 206 203 204 206 206 197 196 182 169 159 158 155 160 160 148 136 142 140 153 173 171 171 181 162 355 327 37 9 360 356
92 321 280 283 325 304 323 305 255 250 257 257 243 268 232 196 223 223 201 194 185 180 168 167 167 159 157 152 142 138 141 146 155 172 174 190 180 124 49 31 59 351 20 5
333 247 313 332 311 288 270 249 234 233 242 248 260 277 270 224 280 290 168 164 167 176 172 168 162 154 151 143 139 139 133 137 150 156 159 167 121 58 30 12 31 4 30 12
210 166 147 290 278 198 264 277 255 243 239 264 358 271 306 22 5 329 354 124 141 152 163 164 163 159 154 148 145 142 135 133 148 145 136 128 121 137 119 4 35 352 356 5
301 220 65 322 305 299 278 283 296 292 295 298 252 265 11 39 42 47 68 103 117 128 147 163 164 159 154 151 154 149 144 137 139 139 124 107 104 63 61 29 349 349 347 1
329 331 44 334 302 287 275 285 317 288 282 279 271 275 201 121 67 59 67 119 137 138 155 154 152 153 154 159 161 150 143 140 128 129 121 116 101 61 49 20 279 17 7 348
316 297 288 259 245 219 299 306 278 282 293 288 283 281 339 34 21 18 22 105 142 129 121 130 136 143 150 155 151 146 146 137 123 141 134 121 112 112 129 302 25 10 358 345
313 285 278 259 282 312 275 260 283 289 296 296 296 329 44 34 12 351 328 240 149 142 130 134 134 142 148 146 149 148 145 138 128 142 135 124 115 123 140 88 17 358 342 326
336 295 287 281 288 294 288 302 300 295 296 287 291 321 64 33 9 356 346 353 133 136 140 147 143 142 144 146 147 145 149 147 136 147 150 147 154 169 242 30 357 336 322 312
325 282 277 238 186 196 275 290 292 290 281 276 279 290 58 11 3 2 356 0 152 166 162 160 159 161 154 147 148 146 151 147 139 163 165 157 186 256 324 327 325 320 308 310
288 269 281 299 315 312 297 290 282 276 278 283 285 300 324 345 345 346 343 317 222 196 187 187 180 177 169 154 147 159 163 169 174 189 178 167 206 272 275 284 290 291 297 305
296 274 277 284 293 289 288 289 286 278 281 284 295 304 326 337 330 325 323 293 245 219 207 204 199 186 178 167 158 174 189 183 194 210 201 199 223 262 265 278 283 286 296 304
297 288 288 277 277 286 284 282 282 282 285 286 291 302 344 345 334 321 316 295 267 242 222 214 202 199 190 185 183 189 207 196 205 220 215 219 242 255 267 272 271 284 303 308
277 283 288 283 298 284 264 285 299 303 302 299 306 331 348 338 331 317 307 297 296 275 233 221 209 198 194 205 202 204 216 219 218 223 220 222 238 250 261 272 268 279 290 295
271 277 271 282 288 279 20 25 333 310 307 326 335 340 332 330 321 301 292 300 302 289 239 224 210 200 195 199 200 208 219 224 223 222 223 225 240 246 255 262 276 282 283 291
243 267 282 284 286 282 276 353 329 306 293 348 343 336 332 331 307 269 8 333 306 289 249 220 203 197 199 193 201 209 221 226 223 214 223 230 242 252 255 256 269 273 278 284
216 245 268 279 287 288 16 26 342 294 266 28 348 335 330 321 305 332 345 316 311 307 243 205 188 185 190 189 203 212 222 222 216 214 224 231 241 254 255 254 261 266 271 274
255 251 258 271 272 278 20 3 316 287 342 347 331 323 315 311 322 329 312 305 309 300 254 180 177 184 186 189 202 216 225 218 220 215 220 227 242 253 256 254 260 264 270 282
288 284 272 273 267 296 23 338 331 332 327 319 317 313 309 316 325 318 305 302 296 281 228 175 185 193 188 189 198 219 227 211 211 209 208 220 246 258 237 238 244 258 274 278
264 294 303 291 298 339 326 318 320 315 308 310 312 314 312 309 311 306 302 293 285 271 224 199 196 196 192 190 197 217 214 204 205 198 192 213 219 219 230 244 247 253 262 287
264 276 274 276 277 298 305 311 317 315 310 308 307 306 300 295 296 294 289 279 271 259 219 217 207 195 190 191 200 210 198 201 203 193 191 198 194 198 195 257 268 297 315 322
286 280 269 268 282 294 296 311 317 316 309 304 297 291 289 283 277 274 273 265 259 243 223 220 216 205 195 192 198 196 190 202 199 192 194 199 195 190 230 252 298 307 341 346
257 263 270 280 297 298 301 307 308 309 305 299 291 289 284 278 270 266 259 255 255 242 229 221 217 207 197 195 197 192 194 199 197 196 203 209 202 194 235 246 230 172 241 210